When you browse on this site, cookies collect data to enhance your experience and personalize the content and advertising you see.
Visit our Privacy Policy to learn more. By continuing to use the site, you agree to this use of cookies and data.
  • In Czech Republic
  • List of Countries
  • For 7 days
  • Water Temperature
  • Satellite Maps
  • Weather Map
  • Weather Widgets
  • user-avatar
    Login

    Hourly Weather Ignacovka

    Today, 21 July, Sunday

    Time Temperature Precipitation Wind Pressure Humidity
    00:00 +15°C° 0 mm 0 mps 749 mmHg 88%
    01:00 +15°C° 0 mm 0 mps 749 mmHg 88%
    02:00 +14°C° 0 mm 0 mps 749 mmHg 89%
    03:00 +14°C° 0 mm 0 mps 749 mmHg 89%
    04:00 +15°C° 0 mm 0 mps 749 mmHg 89%
    05:00 +15°C° 0 mm 0 mps 749 mmHg 89%
    06:00 +17°C° 0 mm 0 mps 750 mmHg 84%
    07:00 +19°C° 0 mm 0 mps 750 mmHg 78%
    08:00 +21°C° 0 mm 0 mps 750 mmHg 72%
    09:00 +22°C° 0.5 mm 0 mps 750 mmHg 67%
    10:00 +24°C° 0.5 mm 0 mps 750 mmHg 62%
    11:00 +25°C° 0.5 mm 0 mps 750 mmHg 57%
    12:00 +26°C° 0 mm 0 mps 750 mmHg 53%
    13:00 +26°C° 0 mm 0 mps 750 mmHg 50%
    14:00 +29°C° 0 mm 1 mps 750 mmHg 47%
    15:00 +29°C° 0 mm 1 mps 749 mmHg 49%
    16:00 +26°C° 0 mm 0 mps 749 mmHg 52%
    17:00 +26°C° 0 mm 0 mps 749 mmHg 54%
    18:00 +24°C° 0.2 mm 0 mps 749 mmHg 62%
    19:00 +24°C° 0.2 mm 1 mps 749 mmHg 70%
    20:00 +22°C° 0.2 mm 1 mps 749 mmHg 79%
    21:00 +21°C° 0.1 mm 1 mps 749 mmHg 81%
    22:00 +20°C° 0.1 mm 1 mps 749 mmHg 83%
    23:00 +20°C° 0.1 mm 1 mps 749 mmHg 85%

    Tomorrow, 22 July, Monday

    Time Temperature Precipitation Wind Pressure Humidity
    00:00 +20°C° 0.2 mm 1 mps 748 mmHg 86%
    01:00 +19°C° 0.2 mm 1 mps 748 mmHg 88%
    02:00 +19°C° 0.2 mm 1 mps 748 mmHg 90%
    03:00 +19°C° 0.2 mm 1 mps 748 mmHg 91%
    04:00 +17°C° 0.2 mm 2 mps 748 mmHg 91%
    05:00 +17°C° 0.2 mm 2 mps 748 mmHg 92%
    06:00 +18°C° 0.5 mm 2 mps 747 mmHg 92%
    07:00 +19°C° 0.5 mm 1 mps 747 mmHg 93%
    08:00 +19°C° 0.5 mm 1 mps 747 mmHg 94%
    09:00 +18°C° 1.4 mm 2 mps 747 mmHg 95%
    10:00 +18°C° 1.4 mm 2 mps 747 mmHg 96%
    11:00 +18°C° 1.4 mm 2 mps 748 mmHg 97%
    12:00 +19°C° 0.7 mm 2 mps 747 mmHg 93%
    13:00 +20°C° 0.7 mm 3 mps 747 mmHg 88%
    14:00 +21°C° 0.7 mm 3 mps 747 mmHg 84%
    15:00 +21°C° 0.7 mm 3 mps 747 mmHg 84%
    16:00 +21°C° 0.7 mm 3 mps 747 mmHg 84%
    17:00 +22°C° 0.7 mm 3 mps 747 mmHg 84%
    18:00 +20°C° 0.2 mm 3 mps 747 mmHg 87%
    19:00 +19°C° 0.2 mm 3 mps 747 mmHg 90%
    20:00 +18°C° 0.2 mm 3 mps 747 mmHg 93%
    21:00 +18°C° 0 mm 3 mps 747 mmHg 94%
    22:00 +17°C° 0 mm 3 mps 747 mmHg 95%
    23:00 +16°C° 0 mm 3 mps 747 mmHg 96%

    Day after tomorrow, 23 July, Tuesday

    Time Temperature Precipitation Wind Pressure Humidity
    00:00 +16°C° 0 mm 3 mps 747 mmHg 96%
    01:00 +15°C° 0 mm 4 mps 747 mmHg 97%
    02:00 +14°C° 0 mm 4 mps 747 mmHg 97%
    03:00 +15°C° 0 mm 4 mps 747 mmHg 96%
    04:00 +16°C° 0 mm 3 mps 747 mmHg 95%
    05:00 +16°C° 0 mm 3 mps 747 mmHg 94%
    06:00 +16°C° 0 mm 3 mps 747 mmHg 93%
    07:00 +17°C° 0 mm 3 mps 747 mmHg 92%
    08:00 +17°C° 0 mm 3 mps 746 mmHg 91%
    09:00 +17°C° 0 mm 3 mps 747 mmHg 88%
    10:00 +18°C° 0 mm 3 mps 747 mmHg 85%
    11:00 +19°C° 0 mm 3 mps 747 mmHg 82%
    12:00 +19°C° 0.1 mm 3 mps 747 mmHg 80%
    13:00 +20°C° 0.1 mm 3 mps 747 mmHg 78%
    14:00 +21°C° 0.1 mm 3 mps 747 mmHg 75%
    15:00 +21°C° 0.2 mm 3 mps 747 mmHg 75%
    16:00 +21°C° 0.2 mm 3 mps 747 mmHg 74%
    17:00 +23°C° 0.2 mm 2 mps 747 mmHg 74%
    18:00 +20°C° 0.2 mm 2 mps 747 mmHg 81%
    19:00 +19°C° 0.2 mm 2 mps 746 mmHg 87%
    20:00 +18°C° 0.2 mm 2 mps 746 mmHg 94%
    21:00 +17°C° 0 mm 2 mps 747 mmHg 95%
    22:00 +16°C° 0 mm 2 mps 747 mmHg 95%
    23:00 +16°C° 0 mm 2 mps 747 mmHg 95%

    24 July, Wednesday

    Time Temperature Precipitation Wind Pressure Humidity
    00:00 +16°C° 0 mm 2 mps 747 mmHg 95%
    01:00 +15°C° 0 mm 2 mps 747 mmHg 96%
    02:00 +15°C° 0 mm 2 mps 747 mmHg 96%
    03:00 +15°C° 0 mm 2 mps 747 mmHg 96%
    04:00 +15°C° 0 mm 2 mps 747 mmHg 96%
    05:00 +15°C° 0 mm 2 mps 747 mmHg 96%
    06:00 +16°C° 0 mm 2 mps 747 mmHg 91%
    07:00 +18°C° 0 mm 3 mps 747 mmHg 87%
    08:00 +20°C° 0 mm 3 mps 748 mmHg 82%
    09:00 +21°C° 0 mm 3 mps 748 mmHg 74%
    10:00 +24°C° 0 mm 3 mps 748 mmHg 67%
    11:00 +25°C° 0 mm 4 mps 748 mmHg 59%
    12:00 +26°C° 0 mm 4 mps 748 mmHg 57%
    13:00 +26°C° 0 mm 4 mps 748 mmHg 56%
    14:00 +27°C° 0 mm 4 mps 748 mmHg 55%
    15:00 +26°C° 0 mm 4 mps 748 mmHg 57%
    16:00 +26°C° 0 mm 3 mps 748 mmHg 59%
    17:00 +26°C° 0 mm 3 mps 748 mmHg 61%
    18:00 +24°C° 0 mm 3 mps 748 mmHg 68%
    19:00 +21°C° 0 mm 2 mps 749 mmHg 75%
    20:00 +20°C° 0 mm 2 mps 749 mmHg 82%
    21:00 +19°C° 0 mm 2 mps 749 mmHg 84%
    22:00 +18°C° 0 mm 2 mps 749 mmHg 86%
    23:00 +17°C° 0 mm 2 mps 750 mmHg 88%

    25 July, Thursday

    Time Temperature Precipitation Wind Pressure Humidity
    00:00 +17°C° 0 mm 2 mps 750 mmHg 89%
    01:00 +16°C° 0 mm 2 mps 750 mmHg 90%
    02:00 +16°C° 0 mm 2 mps 750 mmHg 91%
    03:00 +16°C° 0 mm 2 mps 750 mmHg 90%
    04:00 +15°C° 0 mm 2 mps 750 mmHg 90%
    05:00 +15°C° 0 mm 2 mps 751 mmHg 89%
    06:00 +17°C° 0 mm 2 mps 751 mmHg 83%
    07:00 +19°C° 0 mm 2 mps 751 mmHg 76%
    08:00 +21°C° 0 mm 2 mps 751 mmHg 69%
    09:00 +24°C° 0 mm 3 mps 751 mmHg 64%
    10:00 +25°C° 0 mm 3 mps 751 mmHg 58%
    11:00 +26°C° 0 mm 3 mps 751 mmHg 52%
    12:00 +27°C° 0 mm 4 mps 751 mmHg 52%
    13:00 +27°C° 0 mm 4 mps 751 mmHg 51%
    14:00 +28°C° 0 mm 4 mps 751 mmHg 51%
    15:00 +27°C° 0 mm 4 mps 751 mmHg 53%
    16:00 +27°C° 0 mm 4 mps 750 mmHg 55%
    17:00 +27°C° 0 mm 3 mps 750 mmHg 57%
    18:00 +25°C° 0 mm 3 mps 750 mmHg 64%
    19:00 +23°C° 0 mm 2 mps 750 mmHg 70%
    20:00 +20°C° 0 mm 2 mps 750 mmHg 76%
    21:00 +19°C° 0 mm 2 mps 751 mmHg 79%
    22:00 +18°C° 0 mm 2 mps 751 mmHg 82%
    23:00 +18°C° 0 mm 2 mps 751 mmHg 85%

    26 July, Friday

    Time Temperature Precipitation Wind Pressure Humidity
    00:00 +17°C° 0 mm 2 mps 751 mmHg 87%
    01:00 +17°C° 0 mm 2 mps 751 mmHg 89%
    02:00 +17°C° 0 mm 2 mps 751 mmHg 90%
    03:00 +16°C° 0 mm 2 mps 751 mmHg 91%
    04:00 +16°C° 0 mm 2 mps 751 mmHg 92%
    05:00 +16°C° 0 mm 2 mps 751 mmHg 93%
    06:00 +18°C° 0 mm 2 mps 751 mmHg 87%
    07:00 +20°C° 0 mm 2 mps 751 mmHg 81%
    08:00 +22°C° 0 mm 3 mps 751 mmHg 75%
    09:00 +24°C° 0 mm 3 mps 751 mmHg 70%
    10:00 +26°C° 0 mm 3 mps 751 mmHg 64%
    11:00 +27°C° 0 mm 3 mps 751 mmHg 58%
    12:00 +27°C° 0.2 mm 3 mps 751 mmHg 59%
    13:00 +27°C° 0.2 mm 3 mps 750 mmHg 59%
    14:00 +28°C° 0.2 mm 3 mps 750 mmHg 60%
    15:00 +27°C° 0.2 mm 3 mps 750 mmHg 63%
    16:00 +26°C° 0.2 mm 3 mps 750 mmHg 67%
    17:00 +26°C° 0.2 mm 2 mps 749 mmHg 71%
    18:00 +25°C° 0 mm 2 mps 749 mmHg 75%
    19:00 +23°C° 0 mm 2 mps 750 mmHg 80%
    20:00 +21°C° 0 mm 2 mps 750 mmHg 85%
    21:00 +20°C° 0 mm 2 mps 750 mmHg 87%
    22:00 +20°C° 0 mm 2 mps 750 mmHg 90%
    23:00 +19°C° 0 mm 2 mps 750 mmHg 92%
    Show more